Flag for U.S.A. Weather past 2 weeks in Flagstaff, Arizona, U.S.A.

Now
68 °F

Scattered clouds.


Feels Like: 68 °F
Forecast: 52 / 81 °F
Wind: 3 mph from Southwest

Location: Flagstaff Pulliam Airport

Current Time: Jul 28, 2014 at 6:25:41 PM

Latest Report: Jul 28, 2014 at 5:57 PM


Visibility: 10 mi

Pressure: 30.11 "Hg

Humidity: 55%

Dew point: 51 °F

Location of FlagstaffLocation

Historic Weather in Flagstaff — Graph

°F

Flagstaff temperature yesterday

Maximum temperature yesterday: 83 °F (at 2:57 PM)
Minimum temperature yesterday: 55 °F (at 4:57 AM)
Average temperature yesterday: 67 °F

Past Weeks' High & Low Weather Summary

 TemperatureHumidityPressure
High86 °F (Jul 26, 1:57 PM)93% (Jul 27, 4:57 AM)30.18 "Hg (Jul 27, 4:57 AM)
Low50 °F (Jul 21, 2:57 AM)14% (Jul 25, 12:57 PM)29.87 "Hg (Jul 17, 4:57 PM)
Average68 °F48%30.02 "Hg
* Reported Jul 13 4:57 PM — Jul 28 4:57 PM, Flagstaff, Weather by CustomWeather, © 2014

Note: Actual official high and low records may vary slightly from our data, if they occured in-between our weather recording intervals... More about our weather records

Advertising

Flagstaff weather history for previous 24 hours

 ConditionsComfort  
Time TempWeatherWind HumidityBarometerVisibility
4:57 PM
Jul 28
66 °FPassing clouds.5 mph61%30.13 "Hg10 mi
3:57 PM68 °FPartly sunny.8 mph57%30.13 "Hg10 mi
2:57 PM71 °FOvercast.8 mph49%30.11 "Hg10 mi
1:57 PM71 °FOvercast.3 mph49%30.13 "Hg10 mi
12:57 PM68 °FMore clouds than sun.6 mph57%30.16 "Hg10 mi
11:57 AM72 °FMostly cloudy.No wind41%30.14 "Hg10 mi
10:57 AM72 °FPartly sunny.6 mph40%30.15 "Hg10 mi
9:57 AM73 °FPassing clouds.5 mph43%30.15 "Hg10 mi
8:57 AM68 °FPassing clouds.No wind51%30.18 "Hg10 mi
7:57 AM63 °FOvercast.No wind70%30.17 "Hg10 mi
6:57 AM59 °FOvercast.No wind84%30.17 "Hg10 mi
5:57 AM58 °FOvercast.5 mph84%30.14 "Hg10 mi
4:57 AM57 °FPassing clouds.No wind87%30.11 "Hg10 mi
3:57 AM58 °FPassing clouds.No wind81%30.08 "Hg10 mi
2:57 AM60 °FPassing clouds.No wind75%30.08 "Hg10 mi
1:57 AM60 °FOvercast.No wind72%30.12 "Hg10 mi
12:57 AM62 °FOvercast.14 mph67%30.14 "Hg10 mi
11:57 PM
Jul 27
63 °FPassing clouds.3 mph63%30.13 "Hg10 mi
10:57 PM63 °FOvercast.5 mph63%30.12 "Hg10 mi
9:57 PM64 °FMostly cloudy.3 mph56%30.10 "Hg10 mi
8:57 PM63 °FLight rain. Mostly cloudy.9 mph60%30.11 "Hg10 mi
7:57 PM66 °FOvercast.10 mph50%30.09 "Hg10 mi
6:57 PM66 °FOvercast.6 mph59%30.06 "Hg10 mi
Weather by CustomWeather, © 2014

See weather overviewHow to use our weather pages